Location: Kershaw
(34.5481°N, 80.5823°W)
Time: 14:29:23
(UTC+00:00)

deb Explorer IX - Visible Passes

Search period start: 03 October 2022 00:00
Search period end: 13 October 2022 00:00
Orbit: 531 x 1064 km, 38.8° (Epoch: 02 October)

Date Brightness Start Highest point End Pass type
(mag) Time Alt. Az. Time Alt. Az. Time Alt. Az.
03 Oct ? 10:10:41 10° SSW 10:14:41 31° SE 10:19:14 10° E visible
04 Oct ? 09:41:56 18° S 09:44:15 28° SE 09:48:27 10° E visible
05 Oct ? 09:13:25 24° SSE 09:13:49 24° SE 09:17:39 10° E visible
06 Oct ? 08:44:49 18° ESE 08:44:49 18° ESE 08:46:50 10° E visible
06 Oct ? 10:25:38 16° WSW 10:29:09 88° SSE 10:34:18 10° ENE visible
07 Oct ? 09:56:56 37° WSW 09:58:38 83° SSE 10:03:33 10° ENE visible
08 Oct ? 09:28:11 77° SE 09:28:11 77° SE 09:32:49 10° ENE visible
09 Oct ? 08:59:21 35° E 08:59:21 35° E 09:02:06 10° ENE visible
09 Oct ? 10:40:09 13° W 10:44:00 53° N 10:48:56 10° ENE visible
10 Oct ? 08:30:28 16° ENE 08:30:28 16° ENE 08:31:24 10° ENE visible
10 Oct ? 10:11:16 27° WNW 10:13:24 53° N 10:18:08 10° ENE visible
11 Oct ? 09:42:21 50° NNW 09:42:48 53° N 09:47:21 10° ENE visible
12 Oct ? 09:13:23 39° NE 09:13:23 39° NE 09:16:35 10° ENE visible
12 Oct ? 10:54:32 10° WNW 10:58:48 54° N 11:03:42 10° E visible
